Date String (YYYY-MM-DD hh:mm:ss) UTC,Instrument flags,Ambient pressure (hPa),Sample flow (lpm),Bypass flow (lpm),Sample temperature (°C),Ambient temperature (°C),ASC tube jacket temperature (°C),LED temperature (°C),Box temperature (°C),Sample RH (%),Span deviation,Mass concentration (μg/m³),Mass concentration (μg/m³),Mass concentration (μg/m³)
DateTimeUTC,F1_M11,P_M11,Q1_M11,Q2_M11,T1_M11,T2_M11,T3_M11,T4_M11,T5_M11,U1_M11,ZSPAN_M11,X0_M11,X2_M11,X1_M11
2022-07-17 16:00:00,,0830.8,5.00,0.00,29.4,27.6,00.0,38.2,31.3,30.0,0000.0,0011.81,0007.22,0006.28
2022-07-17 16:01:00,,0830.7,5.01,0.00,29.4,27.8,00.0,38.2,31.3,29.6,0000.0,0011.63,0007.16,0006.27
2022-07-17 16:02:00,,0830.7,4.99,0.00,29.4,28.0,00.0,38.2,31.4,29.8,0000.0,0011.46,0007.09,0006.27
2022-07-17 16:03:00,,0830.8,5.00,0.00,29.5,28.1,00.0,38.2,31.4,29.8,0000.0,0011.49,0007.07,0006.26
2022-07-17 16:04:00,,0830.8,5.00,0.00,29.5,28.3,00.0,38.2,31.4,30.5,0000.0,0011.83,0007.14,0006.28
2022-07-17 16:05:00,,0830.7,5.01,0.00,29.5,28.3,00.0,38.2,31.5,30.0,0000.0,0011.86,0007.13,0006.29
2022-07-17 16:06:00,,0830.7,5.01,0.00,29.5,27.7,00.0,38.1,31.5,30.0,0000.0,0012.04,0007.11,0006.30
2022-07-17 16:07:00,,0830.8,5.00,0.00,29.5,27.2,00.0,38.1,31.3,30.7,0000.0,0012.21,0007.12,0006.32
2022-07-17 16:08:00,,0830.7,4.99,0.00,29.5,27.2,00.0,38.1,31.3,31.4,0000.0,0011.95,0007.17,0006.34
2022-07-17 16:09:00,,0830.8,5.00,0.00,29.4,27.3,00.0,38.1,31.2,31.0,0000.0,0012.16,0007.23,0006.37
2022-07-17 16:10:00,,0830.8,4.99,0.00,29.4,27.5,00.0,38.1,31.2,31.0,0000.0,0013.26,0007.25,0006.39
2022-07-17 16:11:00,,0830.8,5.01,0.00,29.4,27.6,00.0,38.1,31.2,30.8,0000.0,0013.42,0007.32,0006.40
2022-07-17 16:12:00,,0830.7,5.01,0.00,29.4,27.8,00.0,38.1,31.3,31.0,0000.0,0013.82,0007.38,0006.42
2022-07-17 16:13:00,,0830.8,4.99,0.00,29.4,28.0,00.0,38.1,31.3,31.2,0000.0,0014.17,0007.41,0006.43
2022-07-17 16:14:00,,0830.7,5.00,0.00,29.5,28.1,00.0,38.2,31.4,30.4,0000.0,0014.33,0007.46,0006.47
2022-07-17 16:15:00,,0830.8,5.01,0.00,29.5,28.3,00.0,38.2,31.4,30.2,0000.0,0014.35,0007.42,0006.48
2022-07-17 16:16:00,,0830.8,4.99,0.00,29.5,28.1,00.0,38.1,31.5,30.0,0000.0,0014.53,0007.42,0006.48
2022-07-17 16:17:00,,0830.8,5.02,0.00,29.5,27.5,00.0,38.1,31.4,30.4,0000.0,0014.51,0007.43,0006.49
2022-07-17 16:18:00,,0830.8,4.99,0.00,29.5,27.2,00.0,38.1,31.3,30.9,0000.0,0014.19,0007.44,0006.49
2022-07-17 16:19:00,,0830.7,4.99,0.00,29.4,27.2,00.0,38.1,31.2,31.2,0000.0,0014.65,0007.41,0006.50
2022-07-17 16:20:00,,0830.7,5.00,0.00,29.4,27.4,00.0,38.1,31.2,30.5,0000.0,0014.66,0007.41,0006.52
2022-07-17 16:21:00,,0830.7,5.00,0.00,29.4,27.5,00.0,38.1,31.2,30.6,0000.0,0013.80,0007.43,0006.54
2022-07-17 16:22:00,,0830.7,5.00,0.00,29.4,27.7,00.0,38.1,31.3,30.8,0000.0,0013.86,0007.42,0006.57
2022-07-17 16:23:00,,0830.7,5.00,0.00,29.4,27.9,00.0,38.1,31.3,31.1,0000.0,0013.84,0007.46,0006.60
2022-07-17 16:24:00,,0830.7,4.99,0.00,29.4,28.1,00.0,38.1,31.4,31.1,0000.0,0013.91,0007.52,0006.66
2022-07-17 16:25:00,,0830.7,5.01,0.00,29.5,28.2,00.0,38.1,31.4,30.0,0000.0,0014.04,0007.52,0006.67
2022-07-17 16:26:00,,0830.7,5.00,0.00,29.5,28.1,00.0,38.1,31.4,29.8,0000.0,0013.63,0007.53,0006.70
2022-07-17 16:27:00,,0830.7,5.00,0.00,29.5,27.6,00.0,38.1,31.4,30.9,0000.0,0013.45,0007.56,0006.73
2022-07-17 16:28:00,,0830.7,4.99,0.00,29.5,27.2,00.0,38.0,31.3,31.0,0000.0,0013.57,0007.58,0006.76
2022-07-17 16:29:00,,0830.8,5.01,0.00,29.4,27.2,00.0,38.1,31.2,31.8,0000.0,0013.73,0007.63,0006.81
2022-07-17 16:30:00,,0830.8,5.00,0.00,29.4,27.3,00.0,38.1,31.2,31.9,0000.0,0013.29,0007.65,0006.84
2022-07-17 16:31:00,,0830.8,5.00,0.00,29.4,27.5,00.0,38.1,31.2,31.9,0000.0,0013.61,0007.67,0006.85
2022-07-17 16:32:00,,0830.8,4.99,0.00,29.4,27.7,00.0,38.1,31.2,32.1,0000.0,0013.75,0007.71,0006.86
2022-07-17 16:33:00,,0830.8,5.01,0.00,29.4,27.8,00.0,38.1,31.3,32.0,0000.0,0013.78,0007.72,0006.87
2022-07-17 16:34:00,,0830.8,4.99,0.00,29.4,28.0,00.0,38.1,31.3,31.6,0000.0,0013.69,0007.75,0006.88
2022-07-17 16:35:00,,0830.8,5.01,0.00,29.4,28.1,00.0,38.1,31.4,31.6,0000.0,0013.84,0007.79,0006.88
2022-07-17 16:36:00,,0830.8,4.99,0.00,29.5,27.8,00.0,38.1,31.4,30.6,0000.0,0013.78,0007.85,0006.90
2022-07-17 16:37:00,,0830.7,5.00,0.00,29.4,27.3,00.0,38.0,31.3,30.5,0000.0,0013.85,0007.87,0006.91
2022-07-17 16:38:00,,0830.7,5.00,0.00,29.4,27.1,00.0,38.0,31.2,30.9,0000.0,0014.17,0007.88,0006.93
2022-07-17 16:39:00,,0830.7,5.00,0.00,29.3,27.2,00.0,38.0,31.1,30.6,0000.0,0014.48,0007.89,0006.93
2022-07-17 16:40:00,,0830.7,5.00,0.00,29.3,27.3,00.0,38.0,31.1,30.6,0000.0,0014.28,0007.85,0006.91
2022-07-17 16:41:00,,0830.8,5.00,0.00,29.3,27.5,00.0,38.0,31.1,31.6,0000.0,0014.66,0007.85,0006.91
2022-07-17 16:42:00,,0830.8,5.00,0.00,29.3,27.7,00.0,38.0,31.2,31.3,0000.0,0014.94,0007.87,0006.92
2022-07-17 16:43:00,,0830.7,5.01,0.00,29.3,27.9,00.0,38.0,31.2,31.2,0000.0,0015.05,0007.88,0006.92
2022-07-17 16:44:00,,0830.7,4.99,0.00,29.4,28.0,00.0,38.1,31.3,31.2,0000.0,0014.90,0007.87,0006.92
2022-07-17 16:45:00,,0830.7,5.00,0.00,29.4,28.2,00.0,38.1,31.3,30.2,0000.0,0014.76,0007.85,0006.92
2022-07-17 16:46:00,,0830.7,5.01,0.00,29.4,27.9,00.0,38.0,31.4,30.5,0000.0,0014.33,0007.84,0006.93
2022-07-17 16:47:00,,0830.7,4.99,0.00,29.4,27.4,00.0,38.0,31.3,30.1,0000.0,0014.09,0007.80,0006.91
2022-07-17 16:48:00,,0830.7,4.99,0.00,29.4,27.2,00.0,38.0,31.2,30.2,0000.0,0014.22,0007.83,0006.90
2022-07-17 16:49:00,,0830.7,5.00,0.00,29.3,27.2,00.0,38.0,31.1,30.2,0000.0,0014.20,0007.84,0006.88
2022-07-17 16:50:00,,0830.8,5.00,0.00,29.3,27.3,00.0,38.0,31.1,30.5,0000.0,0013.58,0007.87,0006.87
2022-07-17 16:51:00,,0830.7,5.00,0.00,29.3,27.5,00.0,38.0,31.1,30.5,0000.0,0013.62,0007.85,0006.87
2022-07-17 16:52:00,,0830.8,5.01,0.00,29.3,27.7,00.0,38.0,31.2,30.6,0000.0,0013.29,0007.82,0006.86
2022-07-17 16:53:00,,0830.8,4.99,0.00,29.3,27.9,00.0,38.0,31.2,30.3,0000.0,0012.21,0007.80,0006.85
2022-07-17 16:54:00,,0830.8,5.01,0.00,29.4,28.0,00.0,38.0,31.3,31.0,0000.0,0011.95,0007.84,0006.87
2022-07-17 16:55:00,,0830.7,4.99,0.00,29.4,27.9,00.0,38.0,31.3,30.4,0000.0,0011.87,0007.80,0006.87
2022-07-17 16:56:00,,0830.8,5.00,0.00,29.4,27.3,00.0,37.9,31.2,30.3,0000.0,0012.48,0007.78,0006.86
2022-07-17 16:57:00,,0830.8,5.00,0.00,29.3,27.0,00.0,37.9,31.2,30.8,0000.0,0013.04,0007.71,0006.85
2022-07-17 16:58:00,,0830.8,5.01,0.00,29.3,27.1,00.0,38.0,31.1,31.4,0000.0,0013.43,0007.72,0006.85
2022-07-17 16:59:00,,0830.8,5.01,0.00,29.2,27.2,00.0,37.9,31.0,31.3,0000.0,0013.78,0007.72,0006.86
